CZ-3C DEB, 40819

Orbit data source: Space-Track

CZ-3C DEB, 40819 is space debris in HEO originally from a launch on Sun, 31 Oct 2010 UTC launched from the Xichang Space Center, China (XSC). Debris objects in space refer to the collection of defunct objects orbiting the Earth. Examples of debris include non-operational satellites, rocket bodies, and fragments generated from explosions, collisions, or faulty payload assembly.

Loading next visibility...
Identifier
40819, 2010-057AL
Orbit
HEO
Country
Flag of CNCN / PRC
Related business
Manufacturer
CALT
Mission
Spacecraft
Bus & Motor
Unknown
Mass
Unknown
Launch date (UTC)
2010-10-31 (16 years ago)
Launch vehicle
Unknown
Launch site
Xichang Space Center, China (XSC)
Object type
Payload
Rocket body
Debris
Shape & HBR
Unknown shape, 0.3 m
Radar Cross Section
Medium (>0.1 m² and <1 m²)

Expand to show TLE details & history
Last TLE update: 2 days ago

TLE from 2 days ago
0 CZ-3C DEB
1 40819U 10057AL  26169.78637657 -.00000272  00000-0 -17481-2 0  9994
2 40819  20.7644 342.0209 7115218   4.4890 359.3815  2.32559252 96731
Epoch: 2026-06-18T18:52Z
TLE epoch observation values (Epoch: 2026-06-18T18:52:22.935Z)
Latitude
-0.00012°
Longitude
151.89801°
Altitude
595.376 km
Speed
9.887 km/s
True Right ascension
22h 48m 04s
True Declination
0° 00' 00"
Sunlit
Object was in daylight at epoch
Visualization orbit readout
Latitude
Unknown
Longitude
Unknown
Altitude
Unknown
Speed
Unknown
Apparent Right ascension
Unknown
Apparent Declination
Unknown
Sunlit
N/A
Visualization observer readout
Local Sidereal Time
11:43:42
Azimuth
Unknown
Elevation
Unknown
Doppler factor
Unknown
Orbital elements
Apogee altitude
34,816.377 km
Perigee altitude
565.227 km
Semi-major axis
24,068.939 km
Eccentricity
0.71152
Inclination
20.7644°
RAAN
342.0209°
Arg. of periapsis
4.489°
True anomaly
354.7837°
Mean anomaly
359.3815°
Eccentric anomaly
357.85722°
Mean motion
0.58124 °/min
Orbital period
619.36 mins
BSTAR
-0.0017481
Loading maneuver chart data...
Computing Atmospheric mass density...
Loading historical data...
Loading historical data...
Loading historical data...
Loading historical data...
Loading historical data...
Loading historical data...
Loading historical data...

Documentation

Showing up to 5 results
|